OBJECT C, 66177

Orbit data source: Space-Track

You're viewing an Uncataloged Satellite

Recently launched and/or uncataloged satellites may have evolving metadata. Metadata may include but not limited to: Owner, Maufacturer, Bus, Motor, and Mission.

OBJECT C, 66177 is a satellite owned by Yaogan Zongti (CN) in SSO that was launched on Sun, 26 Oct 2025 UTC launched from the Xichang Space Center, China (XSC). Unknown objects in Earth's orbit typically refer to objects detected orbiting the Earth but have not yet been identified or cataloged. These objects could be anything from previously untracked satellites, spent rocket stages, debris from satellite collisions, or even natural meteoroids temporarily captured by Earth's gravity.

Loading next visibility...
Identifier
66177, 2025-242C
Orbit
SSO
Country
Flag of CNCN / PRC
Related business
Manufacturer
CAST
Mission
Spacecraft
Bus & Motor
Unknown
Mass
Unknown
Launch date (UTC)
2025-10-26 (6 days ago)
Launch vehicle
Unknown
Launch site
Xichang Space Center, China (XSC)
Object type
Unknown
Shape & HBR
Unknown
Radar Cross Section
RCS unknown

Expand to show TLE details & history
Last TLE update: 5 days ago

TLE from 5 days ago
0 OBJECT C
1 66177U 25242C   25299.40367106  .00004293  00000-0  21434-3 0  9991
2 66177  97.6110  12.4552 0044551 134.5252 225.9635 15.17165482    38
Epoch: 2025-10-26T09:41Z
TLE epoch observation values (Epoch: 2025-10-26T09:41:17.179Z)
Latitude
-0°
Longitude
-167.88674°
Altitude
538.913 km
Speed
7.581 km/s
True Right ascension
00h 49m 49s
True Declination
0° 00' 00"
Sunlit
Object was in full shadow at epoch
Visualization orbit readout
Latitude
Unknown
Longitude
Unknown
Altitude
Unknown
Speed
Unknown
Apparent Right ascension
Unknown
Apparent Declination
Unknown
Sunlit
N/A
Visualization observer readout
Local Sidereal Time
15:52:44
Azimuth
Unknown
Elevation
Unknown
Doppler factor
Unknown
Orbital elements
Apogee altitude
542.084 km
Perigee altitude
480.697 km
Semi-major axis
6,889.528 km
Eccentricity
0.00446
Inclination
97.611°
RAAN
12.4552°
Arg. of periapsis
134.5252°
True anomaly
225.59791°
Mean anomaly
225.9635°
Eccentric anomaly
225.78056°
Mean motion
3.79541 °/min
Orbital period
94.85 mins
BSTAR
0.00021434
Loading maneuver chart data...
Computing Atmospheric mass density...
Loading historical data...
Loading historical data...
Loading historical data...
Loading historical data...
Loading historical data...
Loading historical data...
Loading historical data...
Other satellites on launch #242 in the year 2025 (2025-10-26 UTC)

Documentation

Showing up to 5 results
|